TimePST,TemperatureF,Dew PointF,Humidity,Sea Level PressureIn,VisibilityMPH,Wind Direction,Wind SpeedMPH,Gust SpeedMPH,PrecipitationIn,Events,Conditions,WindDirDegrees,DateUTC
12:53 AM,45.0,39.9,82,30.01,10.0,WSW,4.6,-,N/A,,Overcast,240,2013-02-19 08:53:00
1:53 AM,46.0,39.0,76,30.00,10.0,Calm,Calm,-,N/A,,Overcast,0,2013-02-19 09:53:00
2:53 AM,46.0,37.0,71,29.99,10.0,Calm,Calm,-,N/A,,Overcast,0,2013-02-19 10:53:00
3:53 AM,44.1,37.0,76,29.97,10.0,Calm,Calm,-,N/A,,Mostly Cloudy,0,2013-02-19 11:53:00
4:53 AM,44.1,37.0,76,29.97,10.0,NW,3.5,-,N/A,,Overcast,310,2013-02-19 12:53:00
5:18 AM,42.8,37.4,81,29.97,10.0,Calm,Calm,-,N/A,,Overcast,0,2013-02-19 13:18:00
5:32 AM,42.8,37.4,81,29.97,10.0,Calm,Calm,-,N/A,,Overcast,0,2013-02-19 13:32:00
5:53 AM,44.1,37.0,76,29.97,10.0,Calm,Calm,-,N/A,,Overcast,0,2013-02-19 13:53:00
6:53 AM,43.0,37.9,82,29.96,10.0,Calm,Calm,-,N/A,,Overcast,0,2013-02-19 14:53:00
7:53 AM,45.0,39.0,80,29.94,10.0,Calm,Calm,-,N/A,,Overcast,0,2013-02-19 15:53:00
8:07 AM,44.6,41.0,87,29.94,2.5,SE,3.5,-,0.01,Rain,Light Rain,140,2013-02-19 16:07:00
8:29 AM,44.6,42.8,93,29.93,6.0,Calm,Calm,-,0.02,Rain,Light Rain,0,2013-02-19 16:29:00
8:53 AM,45.0,42.1,90,29.93,10.0,Calm,Calm,-,0.03,Rain,Light Rain,0,2013-02-19 16:53:00
9:02 AM,44.6,42.8,93,29.92,10.0,Calm,Calm,-,0.00,,Overcast,0,2013-02-19 17:02:00
9:17 AM,44.6,42.8,93,29.91,10.0,East,3.5,-,0.00,,Overcast,100,2013-02-19 17:17:00
9:37 AM,46.4,42.8,87,29.90,6.0,Calm,Calm,-,0.01,Rain,Light Rain,0,2013-02-19 17:37:00
9:49 AM,46.4,42.8,87,29.90,10.0,Calm,Calm,-,0.01,,Overcast,0,2013-02-19 17:49:00
10:18 AM,48.2,44.6,87,29.89,10.0,South,10.4,-,0.00,,Overcast,190,2013-02-19 18:18:00
10:53 AM,50.0,44.1,80,29.87,10.0,SSW,16.1,-,0.00,Rain,Light Rain,200,2013-02-19 18:53:00
11:20 AM,46.4,44.6,93,29.86,4.0,SSW,13.8,19.6,0.06,Rain,Rain,200,2013-02-19 19:20:00
11:39 AM,46.4,44.6,93,29.86,2.5,SW,16.1,24.2,0.13,Rain,Rain,230,2013-02-19 19:39:00
11:48 AM,44.6,42.8,93,29.86,3.0,WSW,10.4,32.2,0.16,Rain,Rain,250,2013-02-19 19:48:00
11:53 AM,45.0,45.0,100,29.86,4.0,WSW,6.9,20.7,0.16,Rain,Light Rain,240,2013-02-19 19:53:00
12:03 PM,44.6,44.6,100,29.85,4.0,SW,9.2,-,0.02,Rain,Rain,220,2013-02-19 20:03:00
12:48 PM,44.6,44.6,100,29.83,2.5,West,4.6,-,0.13,Rain,Rain,260,2013-02-19 20:48:00
12:53 PM,45.0,45.0,100,29.83,3.0,West,4.6,-,0.14,Rain,Rain,260,2013-02-19 20:53:00
1:53 PM,46.9,45.0,93,29.81,10.0,SW,5.8,-,0.00,,Overcast,230,2013-02-19 21:53:00
2:16 PM,46.4,42.8,87,29.81,10.0,Variable,5.8,-,N/A,,Overcast,0,2013-02-19 22:16:00
2:27 PM,46.4,39.2,76,29.81,10.0,West,10.4,-,N/A,,Overcast,270,2013-02-19 22:27:00
2:53 PM,46.0,39.0,76,29.81,10.0,WSW,12.7,18.4,N/A,,Mostly Cloudy,250,2013-02-19 22:53:00
4:53 PM,44.1,37.9,79,29.79,10.0,Variable,3.5,-,0.02,,Partly Cloudy,0,2013-02-20 00:53:00
5:53 PM,43.0,35.1,74,29.80,10.0,West,8.1,-,N/A,,Partly Cloudy,270,2013-02-20 01:53:00
6:53 PM,41.0,34.0,76,29.80,10.0,West,6.9,-,N/A,,Clear,260,2013-02-20 02:53:00
7:53 PM,39.9,34.0,79,29.81,10.0,WNW,3.5,-,N/A,,Clear,300,2013-02-20 03:53:00
8:53 PM,37.0,34.0,89,29.82,10.0,Calm,Calm,-,N/A,,Clear,0,2013-02-20 04:53:00
9:53 PM,35.1,33.1,92,29.83,10.0,NW,3.5,-,N/A,,Clear,310,2013-02-20 05:53:00
10:53 PM,33.1,32.0,96,29.83,10.0,Calm,Calm,-,N/A,,Clear,0,2013-02-20 06:53:00
11:53 PM,34.0,32.0,92,29.85,10.0,WNW,4.6,-,N/A,,Clear,300,2013-02-20 07:53:00